STARLINK-34903, 65372

Orbit data source: Space-Track

STARLINK-34903, 65372 is a payload satellite owned by SpaceX/Seattle (US) in LEO that was launched on Thu, 28 Aug 2025 UTC via an FALCON 9 launch vehicle from the Air Force Eastern Test Range (AFETR). Payload-class satellites include a variety of spacecraft equipped with specific instruments for various scientific and technological missions. These include communications satellites like Starlink; space stations such as the ISS; scientific satellites like the Hubble; Earth observation satellites from companies like Planet Labs, Umbra, and HawkEye 360; GPS; miniature CubeSats for education and research; and military/defense satellites.

Loading next visibility...
Identifier
65372, 2025-190X
Orbit
LEO
Country
Flag of USUS
Related business
Manufacturer
SpaceX/Seattle
Mission
Operational Commercial Communications
Bus & Motor
STARLINK V2MO, Unknown motor
Mass
575 kg wet, ~530 kg dry
Launch date (UTC)
2025-08-28 (7 months ago)
Launch vehicle
FALCON 9
Launch site
Air Force Eastern Test Range (AFETR)
Object type
Payload
Rocket body
Debris
Shape & HBR
Box + 2 Pan, 17.7 m
Radar Cross Section
36.964 m², Large (>1 m²)

Expand to show TLE details & history
Last TLE update: 10 hours ago

TLE from 10 hours ago
0 STARLINK-34903
1 65372U 25190X   26094.13744970  .00074895  00000-0  25108-2 0  9997
2 65372  53.1614  49.8040 0001168  92.0504 268.0630 15.30260029 33656
Epoch: 2026-04-04T03:17Z
TLE epoch observation values (Epoch: 2026-04-04T03:17:55.654Z)
Latitude
-0.00005°
Longitude
167.86053°
Altitude
475.963 km
Speed
7.629 km/s
True Right ascension
03h 19m 12s
True Declination
0° 00' 00"
Sunlit
Object was in daylight at epoch
Visualization orbit readout
Latitude
Unknown
Longitude
Unknown
Altitude
Unknown
Speed
Unknown
Apparent Right ascension
Unknown
Apparent Declination
Unknown
Sunlit
N/A
Visualization observer readout
Local Sidereal Time
19:34:06
Azimuth
Unknown
Elevation
Unknown
Doppler factor
Unknown
Orbital elements
Apogee altitude
476.093 km
Perigee altitude
474.492 km
Semi-major axis
6,853.429 km
Eccentricity
0.00012
Inclination
53.1614°
RAAN
49.804°
Arg. of periapsis
92.0504°
True anomaly
268.04962°
Mean anomaly
268.063°
Eccentric anomaly
268.05631°
Mean motion
3.82544 °/min
Orbital period
94.11 mins
BSTAR
0.0025108
Loading maneuver chart data...
Computing Atmospheric mass density...
Loading historical data...
Loading historical data...
Loading historical data...
Loading historical data...
Loading historical data...
Loading historical data...
Loading historical data...

Documentation

Showing up to 5 results
|